Whidbey Island, WA

2:46 AM PDT on August 18, 2017 (GMT -0700)
Whidbey Island Naval Air Station

Weather History for KNUW - February, 2013

Change the Weather History Date:

Wednesday, February 6, 2013

  Actual Average Record
Temperature  
Mean Temperature 46 °F -  
Max Temperature 48 °F 46 °F 59 °F (2015)
Min Temperature 43 °F 33 °F 21 °F (2014)
Degree Days  
Heating Degree Days 20    
Moisture  
Dew Point 38 °F    
Average Humidity 76    
Maximum Humidity 82    
Minimum Humidity 66    
Precipitation  
Precipitation 0.00 in - - ()
Sea Level Pressure  
Sea Level Pressure 29.93 in    
Wind  
Wind Speed 15 mph (SE)    
Max Wind Speed 26 mph    
Max Gust Speed 34 mph    
Visibility 10 miles    
Events Rain    
Averages and records for this station are not official NWS values.
T = Trace of Precipitation, MM = Missing Value Source: NWS Daily Summary

Daily Weather History Graph

Daily Weather History Graph

Search for Another Location

Airport or City:

Trip Planner

Search our weather history database for the weather conditions in past years. The results will help you decide how hot, cold, wet, or windy it might be!

Date:

Astronomy

Feb. 06, 2013 Rise Set
Actual Time 7:31 AM PST 5:18 PM PST
Civil Twilight 6:58 AM PST 5:51 PM PST
Nautical Twilight 6:21 AM PST 6:28 PM PST
Astronomical Twilight 5:45 AM PST 7:05 PM PST
Moon 4:30 AM PST (2/6) 1:33 PM PST (2/6)
Length of Visible Light 10h 52m
Length of Day
9h 46m
Waning Crescent, 16% of the Moon is Illuminated
Feb 6
Waning Crescent
Feb 9
New
Feb 17
First Quarter
Feb 25
Full
Mar 4
Last Quarter

Hourly Weather History & Observations

Time (PST) Temp. Windchill Dew Point Humidity Pressure Visibility Wind Dir Wind Speed Gust Speed Precip Events Conditions
12:56 AM 44.1 °F 39.0 °F 39.0 °F 82% 29.93 in 10.0 mi SSE 9.2 mph - N/A   Mostly Cloudy
1:56 AM 44.1 °F 39.0 °F 39.0 °F 82% 29.95 in 10.0 mi SE 9.2 mph - N/A   Mostly Cloudy
2:56 AM 44.1 °F 38.6 °F 39.0 °F 82% 29.95 in 10.0 mi SE 10.4 mph - N/A   Mostly Cloudy
3:56 AM 43.0 °F 36.4 °F 37.9 °F 82% 29.97 in 10.0 mi SSE 12.7 mph - N/A   Mostly Cloudy
4:56 AM 43.0 °F 38.2 °F 37.9 °F 82% 29.98 in 10.0 mi SE 8.1 mph - N/A   Mostly Cloudy
5:56 AM 44.1 °F 37.4 °F 37.9 °F 79% 29.99 in 10.0 mi SE 13.8 mph - N/A   Overcast
6:44 AM 44.6 °F 40.7 °F 37.4 °F 76% 29.99 in 8.0 mi SSE 6.9 mph - 0.00 in Rain Light Rain
6:56 AM 44.1 °F 39.5 °F 37.9 °F 79% 30.00 in 9.0 mi SE 8.1 mph - 0.00 in   Overcast
7:56 AM 44.1 °F 38.1 °F 39.0 °F 82% 30.01 in 10.0 mi SE 11.5 mph - N/A   Overcast
8:56 AM 45.0 °F 37.4 °F 39.0 °F 80% 30.01 in 10.0 mi SSE 18.4 mph 23.0 mph N/A   Overcast
9:56 AM 46.0 °F 38.5 °F 39.0 °F 76% 30.00 in 10.0 mi SE 19.6 mph 28.8 mph N/A   Overcast
10:50 AM 46.4 °F 38.1 °F 39.2 °F 76% 29.99 in 9.0 mi SSE 24.2 mph 29.9 mph N/A   Overcast
10:56 AM 46.9 °F - 39.0 °F 74% 30.00 in 10.0 mi SSE 23.0 mph 29.9 mph N/A   Overcast
11:56 AM 48.0 °F - 39.0 °F 71% 29.99 in 10.0 mi SSE 25.3 mph 31.1 mph N/A   Overcast
12:56 PM 46.9 °F - 39.0 °F 74% 29.96 in 10.0 mi SE 25.3 mph 32.2 mph N/A   Overcast
1:56 PM 46.9 °F - 37.9 °F 71% 29.94 in 10.0 mi SE 21.9 mph 34.5 mph N/A   Overcast
2:56 PM 48.0 °F - 37.9 °F 68% 29.93 in 10.0 mi SE 21.9 mph 31.1 mph N/A   Overcast
3:56 PM 48.0 °F - 37.9 °F 68% 29.92 in 10.0 mi SE 26.5 mph 33.4 mph N/A   Overcast
4:56 PM 46.9 °F - 37.9 °F 71% 29.90 in 10.0 mi SE 24.2 mph 33.4 mph N/A   Overcast
5:56 PM 46.0 °F 37.6 °F 39.0 °F 76% 29.91 in 10.0 mi SE 24.2 mph 31.1 mph N/A   Overcast
6:06 PM 46.4 °F 39.2 °F 39.2 °F 76% 29.88 in 10.0 mi SE 18.4 mph 25.3 mph 0.00 in Rain Light Rain
6:56 PM 45.0 °F 37.4 °F 39.0 °F 80% 29.87 in 10.0 mi SE 18.4 mph 32.2 mph 0.00 in   Overcast
7:56 PM 45.0 °F 36.2 °F 37.9 °F 76% 29.85 in 10.0 mi SE 24.2 mph 34.5 mph 0.00 in Rain Light Rain
8:56 PM 45.0 °F 38.2 °F 37.9 °F 76% 29.83 in 10.0 mi East 15.0 mph 25.3 mph 0.00 in Rain Light Rain
9:56 PM 46.9 °F - 37.0 °F 68% 29.80 in 10.0 mi ESE 13.8 mph 24.2 mph 0.00 in Rain Light Rain
10:56 PM 46.9 °F - 36.0 °F 66% 29.78 in 10.0 mi SE 11.5 mph - 0.00 in Rain Light Rain
11:56 PM 46.9 °F - 37.0 °F 68% 29.78 in 10.0 mi ESE 16.1 mph 23.0 mph 0.00 in Rain Light Rain